TimeAKST,TemperatureF,Dew PointF,Humidity,Sea Level PressureIn,VisibilityMPH,Wind Direction,Wind SpeedMPH,Gust SpeedMPH,PrecipitationIn,Events,Conditions,WindDirDegrees,DateUTC
12:33 AM,35.6,33.8,93,29.57,10.0,SW,20.7,26.5,0.00,,Overcast,220,2012-12-07 09:33:00
12:53 AM,34.0,32.0,92,29.60,10.0,WSW,23.0,34.5,0.00,Rain,Light Rain,250,2012-12-07 09:53:00
1:00 AM,33.8,32.0,93,29.60,10.0,WSW,18.4,34.5,0.00,Rain,Light Rain,250,2012-12-07 10:00:00
1:09 AM,35.6,32.0,87,29.61,10.0,West,18.4,-,0.00,Snow,Light Snow,270,2012-12-07 10:09:00
1:53 AM,36.0,30.9,82,29.64,10.0,WSW,9.2,-,0.00,Snow,Light Snow,250,2012-12-07 10:53:00
2:30 AM,33.8,32.0,93,29.65,8.0,North,5.8,-,0.00,Snow,Light Snow,10,2012-12-07 11:30:00
3:53 AM,33.1,30.9,92,29.68,10.0,East,6.9,-,0.00,,Mostly Cloudy,80,2012-12-07 12:53:00
4:25 AM,33.8,30.2,87,29.69,10.0,East,6.9,-,0.00,Snow,Light Snow,100,2012-12-07 13:25:00
4:37 AM,33.8,32.0,93,29.70,2.5,SE,10.4,19.6,0.01,Snow,Light Snow,140,2012-12-07 13:37:00
4:45 AM,33.8,32.0,93,29.70,1.0,East,6.9,-,0.03,Snow,Light Snow,100,2012-12-07 13:45:00
4:53 AM,33.1,32.0,96,29.70,1.2,East,5.8,-,0.04,Snow,Light Snow,90,2012-12-07 13:53:00
5:03 AM,33.8,32.0,93,29.70,2.0,East,5.8,-,0.01,Snow,Light Snow,80,2012-12-07 14:03:00
5:10 AM,33.8,32.0,93,29.71,1.2,ENE,4.6,-,0.03,Snow,Light Snow,60,2012-12-07 14:10:00
5:18 AM,32.0,32.0,100,29.71,3.0,ENE,5.8,-,0.03,Snow,Light Snow,60,2012-12-07 14:18:00
5:32 AM,32.0,30.2,93,29.71,10.0,East,6.9,-,0.03,,Scattered Clouds,90,2012-12-07 14:32:00
5:53 AM,32.0,30.0,92,29.71,10.0,ENE,9.2,-,0.03,,Clear,70,2012-12-07 14:53:00
6:53 AM,33.1,30.0,89,29.73,9.0,East,5.8,-,0.00,,Mostly Cloudy,90,2012-12-07 15:53:00
7:53 AM,33.1,32.0,96,29.76,5.0,East,10.4,-,0.00,Snow,Light Snow,100,2012-12-07 16:53:00
8:02 AM,33.8,32.0,93,29.77,3.0,East,9.2,-,0.00,Snow,Light Snow,90,2012-12-07 17:02:00
8:08 AM,33.8,32.0,93,29.77,2.5,East,9.2,-,0.00,Snow,Light Snow,100,2012-12-07 17:08:00
8:19 AM,32.0,32.0,100,29.77,1.2,ENE,9.2,-,0.01,Snow,Light Snow,70,2012-12-07 17:19:00
8:34 AM,32.0,30.2,93,29.78,3.0,ENE,9.2,-,0.01,Snow,Light Snow,70,2012-12-07 17:34:00
8:39 AM,32.0,30.2,93,29.78,8.0,East,9.2,-,0.01,,Scattered Clouds,80,2012-12-07 17:39:00
8:46 AM,32.0,30.2,93,29.78,10.0,East,10.4,-,0.01,,Scattered Clouds,80,2012-12-07 17:46:00
8:53 AM,32.0,30.0,92,29.78,10.0,East,9.2,-,0.01,,Mostly Cloudy,80,2012-12-07 17:53:00
9:53 AM,32.0,30.0,92,29.81,10.0,East,6.9,-,N/A,,Mostly Cloudy,100,2012-12-07 18:53:00
10:53 AM,35.1,28.9,78,29.84,10.0,East,5.8,-,N/A,,Overcast,100,2012-12-07 19:53:00
11:53 AM,35.1,28.9,78,29.86,10.0,East,8.1,-,N/A,,Mostly Cloudy,100,2012-12-07 20:53:00
12:43 PM,35.6,26.6,70,29.89,1.0,East,5.8,-,0.00,Snow,Light Snow,90,2012-12-07 21:43:00
12:50 PM,33.8,28.4,81,29.90,0.8,WSW,8.1,-,0.00,Snow,Light Snow,240,2012-12-07 21:50:00
12:51 PM,34.0,30.0,85,29.90,0.8,WSW,9.2,-,0.00,Snow,Light Snow,240,2012-12-07 21:51:00
1:00 PM,33.8,32.0,93,29.90,1.0,SSW,6.9,-,0.01,Snow,Light Snow,210,2012-12-07 22:00:00
1:07 PM,33.8,33.8,100,29.91,1.0,South,6.9,-,0.01,Snow,Light Snow,190,2012-12-07 22:07:00
1:17 PM,33.8,33.8,100,29.91,0.5,SSW,3.5,-,0.02,Snow,Heavy Snow,210,2012-12-07 22:17:00
1:29 PM,33.8,33.8,100,29.91,1.8,South,5.8,-,0.03,Snow,Heavy Snow,170,2012-12-07 22:29:00
1:34 PM,33.8,33.8,100,29.91,3.0,SE,4.6,-,0.03,Snow,Heavy Snow,140,2012-12-07 22:34:00
1:41 PM,33.8,32.0,93,29.91,2.0,ESE,4.6,-,0.03,Snow,Light Snow,110,2012-12-07 22:41:00
1:53 PM,33.1,32.0,96,29.92,3.0,East,4.6,-,0.03,Snow,Light Snow,80,2012-12-07 22:53:00
2:05 PM,33.8,32.0,93,29.92,1.8,East,4.6,-,0.01,Snow,Light Snow,80,2012-12-07 23:05:00
2:15 PM,33.8,32.0,93,29.92,2.0,East,4.6,-,0.01,Snow,Light Snow,90,2012-12-07 23:15:00
2:21 PM,33.8,32.0,93,29.92,4.0,ESE,4.6,-,0.01,Snow,Light Snow,110,2012-12-07 23:21:00
2:53 PM,34.0,30.9,89,29.93,10.0,ESE,4.6,-,0.01,,Overcast,110,2012-12-07 23:53:00
3:41 PM,33.8,30.2,87,29.94,10.0,ESE,5.8,-,N/A,,Overcast,110,2012-12-08 00:41:00
3:53 PM,35.1,30.9,85,29.95,10.0,SE,8.1,-,N/A,,Overcast,130,2012-12-08 00:53:00
4:47 PM,33.8,30.2,87,29.97,1.8,East,6.9,-,0.00,Snow,Light Snow,100,2012-12-08 01:47:00
4:53 PM,33.1,30.0,89,29.97,1.0,East,6.9,-,0.01,Snow,Light Snow,100,2012-12-08 01:53:00
5:13 PM,32.0,30.2,93,29.98,2.0,East,6.9,-,0.00,Snow,Light Snow,90,2012-12-08 02:13:00
5:36 PM,32.0,30.2,93,29.98,6.0,ESE,10.4,-,0.01,Snow,Light Snow,110,2012-12-08 02:36:00
5:53 PM,33.1,30.9,92,29.99,4.0,East,9.2,-,0.01,Snow,Light Snow,90,2012-12-08 02:53:00
6:53 PM,33.1,30.9,92,30.01,10.0,East,5.8,-,0.00,,Mostly Cloudy,100,2012-12-08 03:53:00
7:53 PM,30.9,30.0,96,30.03,10.0,East,4.6,-,N/A,,Clear,80,2012-12-08 04:53:00
8:35 PM,30.2,30.2,100,30.04,10.0,Calm,Calm,-,N/A,,Mostly Cloudy,0,2012-12-08 05:35:00
8:53 PM,30.9,30.0,96,30.05,10.0,Calm,Calm,-,N/A,,Overcast,0,2012-12-08 05:53:00
9:26 PM,30.2,28.4,93,30.06,10.0,Calm,Calm,-,N/A,,Partly Cloudy,0,2012-12-08 06:26:00
9:53 PM,30.0,28.9,96,30.06,10.0,Calm,Calm,-,N/A,,Clear,0,2012-12-08 06:53:00
10:53 PM,30.9,28.9,92,30.07,10.0,East,6.9,-,N/A,,Clear,100,2012-12-08 07:53:00
11:53 PM,30.0,28.0,92,30.09,10.0,ENE,4.6,-,N/A,,Clear,60,2012-12-08 08:53:00